User: anonymous   Login
Location: Alberta Star Party
(51.6612°N, 112.9089°W)
Time: 13:55:09
(UTC-06:00)
Language:

AO-Echo - Orbit

View from above orbital plane
View from above orbital plane
View from above satellite
View from above satellite

Ground track
Ground track

The orbit data is extracted from the following two-line orbital elements,

1 28375U 04025K   16180.78472564  .00000015  00000-0  17730-4 0  9993
2 28375  98.3284 116.2189 0081314 269.6653  89.5219 14.41785365630897
Epoch (UTC): 28 June 2016 18:50:00
Eccentricity: 0.0081314
inclination: 98.3284°
perigee height: 694 km
apogee height: 810 km
right ascension of ascending node: 116.2189°
argument of perigee: 269.6653°
revolutions per day: 14.41785365
mean anomaly at epoch: 89.5219°
orbit number at epoch: 63089

The dashed part of the orbit path shows where the satellite is in the earth's shadow,  

DLR